Location: San Martino di Castrozza
(46.2667°N, 11.8000°E)
Time: 16:09:01
(UTC+00:00)

Cosmos 1777 Rocket - Pass Details

Date: 23 April 2021
Orbit: 759 x 775 km, 74.0° (Epoch: 12 May)

Event Time Altitude Azimuth Distance (km) Brightness Sun altitude
Exits shadow 00:13:01 60° 351° (N) 870 4.4 -29.6°
Drops below altitude 10° 00:17:24 10° 19° (NNE) 2,300 7.4 -29.3°
Sets 00:19:47 0° 21° (NNE) 3,229 8.5 -29.2°
